Location: Athabasca
(54.7194°N, 113.2858°W)
Time: 21:09:49
(UTC+00:00)

BlueWalker 3 - Visible Passes

Search period start: 29 May 2023 00:00
Search period end: 08 June 2023 00:00
Orbit: 495 x 512 km, 53.2° (Epoch: 29 May)

Date Brightness Start Highest point End Pass type
(mag) Time Alt. Az. Time Alt. Az. Time Alt. Az.
29 May 2.4 05:41:17 10° SW 05:44:53 38° SSE 05:48:31 10° E visible
29 May 1.8 07:19:19 10° WSW 07:23:10 71° S 07:27:03 10° E visible
29 May 2.0 08:57:45 10° W 09:01:34 55° SSW 09:05:24 10° ESE visible
30 May 2.4 05:20:56 10° SW 05:24:33 39° SSE 05:28:11 10° E visible
30 May 1.8 06:58:58 10° W 07:02:50 71° S 07:06:43 10° E visible
30 May 2.0 08:37:25 10° W 08:41:14 55° SSW 08:45:03 10° ESE visible
31 May 2.4 05:00:35 10° SW 05:04:12 40° SSE 05:07:50 10° E visible
31 May 1.8 06:38:38 10° W 06:42:29 71° S 06:46:22 10° E visible
31 May 2.0 08:17:05 10° W 08:20:53 54° SSW 08:24:41 10° ESE visible
31 May 3.2 09:55:55 10° W 09:58:53 21° SW 10:01:52 10° SSE visible
01 Jun 1.8 06:18:17 10° W 06:22:08 71° S 06:26:01 10° E visible
01 Jun 2.0 07:56:44 10° W 08:00:32 54° SSW 08:04:20 10° ESE visible
01 Jun 3.2 09:35:35 10° W 09:38:31 21° SW 09:41:28 10° SSE visible
02 Jun 1.8 05:57:55 10° W 06:01:47 71° S 06:05:39 10° E visible
02 Jun 2.0 07:36:22 10° W 07:40:09 53° SSW 07:43:58 10° ESE visible
02 Jun 3.3 09:15:14 10° W 09:18:09 20° SW 09:21:04 10° SSE visible
03 Jun 1.9 05:37:33 10° W 05:41:24 71° S 05:45:17 10° E visible
03 Jun 2.0 07:16:01 10° W 07:19:47 52° SSW 07:23:35 10° ESE visible
03 Jun 3.3 08:54:54 10° W 08:57:46 20° SW 08:59:39 14° S visible
04 Jun 1.9 05:17:11 10° W 05:21:02 71° S 05:24:55 10° E visible
04 Jun 2.1 06:55:38 10° W 06:59:25 52° SSW 07:03:12 10° ESE visible
04 Jun 3.4 08:34:33 10° W 08:37:23 19° SW 08:38:17 18° SSW visible
05 Jun 1.9 04:56:49 10° W 05:00:39 72° S 05:04:31 10° E visible
05 Jun 2.1 06:35:16 10° W 06:39:01 51° SSW 06:42:49 10° ESE visible
05 Jun 3.4 08:14:11 10° W 08:16:59 19° SW 08:17:30 19° SSW visible
06 Jun 2.1 06:14:52 10° W 06:18:38 51° SSW 06:22:23 10° ESE visible
06 Jun 3.4 07:53:50 10° W 07:56:35 19° SW 07:57:02 18° SSW visible
07 Jun 2.2 05:54:29 10° W 05:58:14 50° SSW 06:02:00 10° ESE visible
07 Jun 3.5 07:33:28 10° W 07:36:10 18° SW 07:36:43 18° SSW visible
